Regional Weather Roundup
Issued by NWS

Home | Current Version | Previous Version | Graphics & Text | Print | Product List | Glossary On
Versions: 1 2 3 4 5 6 7 8 9 10 11 12 13 14 15 16 17 18 19 20 21 22 23 24 25 26 27 28 29 30 31 32 33 34 35 36 37 38 39 40 41 42 43 44 45 46 47 48 49 50
000
ASUS44 KMEG 031300
RWRTN
TENNESSEE HOURLY STATE WEATHER ROUNDUP
NATIONAL WEATHER SERVICE MEMPHIS TN
800 AM CDT TUE MAY 03 2016

TNZ002-004-019-021-049-052-054-088>092-031400-
WEST TENNESSEE

CITY           SKY/WX    TMP DP  RH WIND       PRES   REMARKS
MEMPHIS INTL   PTSUNNY   59  53  80 N9        30.01R
NWS MEMPHIS      N/A     57 N/A N/A MISG        N/A
JACKSON        CLOUDY    57  51  80 N7        30.01R
DYERSBURG      CLOUDY    55  50  82 N7          N/A
UNION CITY     CLOUDY    55  52  88 N6        30.00S
LEXINGTON      CLOUDY    55  52  88 N6        29.98S
$$

TNZ008-025-027-028-033-062-065-066-031400-
NORTH MIDDLE TENNESSEE

CITY           SKY/WX    TMP DP  RH WIND       PRES   REMARKS
NASHVILLE      PTSUNNY   58  50  75 N6        29.97S
CLARKSVILLE    CLOUDY    55  50  83 N7        29.98R
COOKEVILLE     PTSUNNY   57  55  94 N5        29.94R
CROSSVILLE     CLOUDY    56  52  86 W5        29.94S
$$

TNZ061-075-076-078-094-096-097-031400-
SOUTH MIDDLE TENNESSEE

CITY           SKY/WX    TMP DP  RH WIND       PRES   REMARKS
TULLAHOMA      MOSUNNY   57  55  94 NW9       29.96S
WINCHESTER     PTSUNNY   59  55  88 N6        29.95S
MCMINNVILLE    PTSUNNY   57  57 100 N5        29.95R
COLUMBIA       PTSUNNY  N/A N/A N/A VRB5      29.96S
SHELBYVILLE    MOSUNNY   57  55  94 N6        29.97S
$$

TNZ017-018-042-046-047-031400-
NORTHEAST TENNESSEE

CITY           SKY/WX    TMP DP  RH WIND       PRES   REMARKS
TRI CITIES     CLOUDY    61  58  90 SW6       29.90R
$$

TNZ012-013-036-069-073-074-031400-
CENTRAL EAST TENNESSEE

CITY           SKY/WX    TMP DP  RH WIND       PRES   REMARKS
KNOXVILLE      LGT RAIN  61  59  93 W9        29.90R FOG
OAK RIDGE      CLOUDY    61  57  87 CALM      29.92S
GATLINBURG     CLOUDY    61  59  94 W3        29.89F
$$

TNZ083-085-099-031400-
SOUTHEAST TENNESSEE

CITY           SKY/WX    TMP DP  RH WIND       PRES   REMARKS
CHATTANOOGA    PTSUNNY   62  56  80 N12       29.93R
$$

SKY/WX REPORTED AS FAIR MEANS FEW OR NO CLOUDS BELOW
12 THOUSAND FEET.





USA.gov is the U.S. government's official web portal to all federal, state and local government web resources and services.